This demonstration page uses our WeatherBlox Daily Observations layout. Learn more.

Left ArrowRight Arrow

39.95238, -75.16362

Hourly Observations for May 10, 2015

Temp ( °F °C ) Dew Point ( °F °C ) Humidity (%) Winds ( mph kmh ) Pressure ( in mb ) Visibility ( mi km ) Precip ( " mm )
12:18 am 00:18 Cloudy 68 20 64 17.8 87 87 VRB 3 6 30.24 1024 10 16 0.00 0.00
12:54 am 00:54 Cloudy 69 20.6 64 17.8 84 84 SSW 10 17 30.23 1024 10 16 0.00 0.00
1:30 am 01:30 Cloudy 68 20 64 17.8 87 87 S 8 13 30.21 1023 10 16 0.00 0.00
1:54 am 01:54 Cloudy 68 20 64 17.8 87 87 SSW 9 15 30.22 1023 10 16 0.00 0.00
2:51 am 02:51 Cloudy 68 20 64 18 88 88 SSW 7 11 30.21 1023 10 16 0.00 0.00
2:54 am 02:54 Cloudy 68 20 65 18.3 90 90 SSW 7 11 30.21 1023 10 16 0.00 0.00
3:54 am 03:54 Cloudy 68 20 65 18.3 90 90 SSW 5 7 30.22 1023 10 16 0.00 0.00
4:18 am 04:18 Cloudy 68 20 64 18 88 88 S 5 7 30.21 1023 8 13 0.00 0.00
4:54 am 04:54 Cloudy 68 20 64 17.8 87 87 SSW 7 11 30.21 1023 8 13 0.00 0.00
5:14 am 05:14 Cloudy 66 19 64 18 94 94 SSW 6 9 30.21 1023 7 11 0.00 0.00
5:20 am 05:20 Cloudy with Mist and Fog 67 19.4 64 17.8 91 91 SSW 6 9 30.21 1023 5 8 0.00 0.00
5:30 am 05:30 Cloudy with Mist and Fog 67 19.4 64 17.8 91 91 SSW 5 7 30.21 1023 4 6 0.00 0.00
5:54 am 05:54 Cloudy with Mist and Fog 67 19.4 64 17.8 91 91 S 9 15 30.22 1023 2 3 0.00 0.00
6:17 am 06:17 Cloudy with Mist and Fog 67 19.4 64 17.8 91 91 SSW 9 15 30.24 1024 5 8 0.00 0.00
6:27 am 06:27 Cloudy with Mist and Fog 67 19.4 65 18.3 93 93 SSW 9 15 30.24 1024 4 6 0.00 0.00
6:52 am 06:52 Cloudy with Mist and Fog 66 19 64 18 94 94 SW 7 11 30.24 1024 1 2 0.00 0.00
6:54 am 06:54 Cloudy with Mist and Fog 67 19.4 64 17.8 91 91 WSW 6 9 30.24 1024 1 1 0.00 0.00
7:11 am 07:11 Cloudy with Mist and Fog 67 19.4 64 17.8 91 91 SW 6 9 30.24 1024 1 1 0.00 0.00
7:50 am 07:50 Cloudy with Mist and Fog 68 20 64 18 88 88 SW 5 7 30.24 1024 1 1 0.00 0.00
7:54 am 07:54 Cloudy with Mist and Fog 67 19.4 64 17.8 91 91 SW 6 9 30.24 1024 1 1 0.00 0.00
8:25 am 08:25 Cloudy with Mist and Fog 67 19.4 64 17.8 91 91 SSW 5 7 30.24 1024 2 3 0.00 0.00
8:38 am 08:38 Cloudy with Mist and Fog 66 19 64 18 94 94 SSW 5 7 30.24 1024 4 6 0.00 0.00
8:54 am 08:54 Cloudy with Mist and Fog 68 20 64 17.8 87 87 SSW 3 6 30.25 1024 5 8 0.00 0.00
9:04 am 09:04 Cloudy 68 20 64 17.8 87 87 WSW 3 6 30.24 1024 7 11 0.00 0.00
9:21 am 09:21 Cloudy 69 20.6 65 18.3 87 87 W 3 6 30.24 1024 8 13 0.00 0.00
9:54 am 09:54 Cloudy 70 21.1 65 18.3 84 84 S 6 9 30.24 1024 9 14 0.00 0.00
10:14 am 10:14 Cloudy 70 21.1 65 18.3 84 84 S 6 9 30.24 1024 10 16 0.00 0.00
10:54 am 10:54 Cloudy 72 22.2 65 18.3 79 79 S 7 11 30.24 1024 10 16 0.00 0.00
11:54 am 11:54 Mostly Cloudy 75 23.9 66 18.9 74 74 SW 9 15 30.23 1024 10 16 0.00 0.00
12:41 pm 12:41 Mostly Cloudy 76 24.4 66 18.9 72 72 WSW 10 17 30.21 1023 10 16 0.00 0.00
12:54 pm 12:54 Mostly Cloudy 77 25 66 18.9 69 69 SW 9 15 30.22 1023 10 16 0.00 0.00
1:10 pm 13:10 Mostly Cloudy 77 25 66 18.9 69 69 SW 9 15 30.21 1023 10 16 0.00 0.00
1:54 pm 13:54 Mostly Cloudy 79 26.1 66 18.9 65 65 SSW 5 7 30.20 1023 10 16 0.00 0.00
2:13 pm 14:13 Mostly Cloudy 80 26.7 66 18.9 62 62 VRB 5 7 30.21 1023 10 16 0.00 0.00
2:54 pm 14:54 Mostly Cloudy 81 27.2 65 18.3 58 58 S 6 9 30.17 1022 10 16 0.00 0.00
3:54 pm 15:54 Mostly Cloudy 83 28.3 64 17.8 53 53 VRB 3 6 30.15 1021 10 16 0.00 0.00
4:54 pm 16:54 Mostly Cloudy 81 27.2 66 18.9 61 61 W 18 30 30.14 1021 10 16 0.00 0.00
5:54 pm 17:54 Mostly Cloudy 78 25.6 66 18.9 67 67 WSW 12 19 30.14 1021 10 16 0.00 0.03
6:54 pm 18:54 Mostly Cloudy 79 26.1 66 18.9 65 65 S 6 9 30.14 1021 10 16 0.00 0.00
7:54 pm 19:54 Mostly Cloudy 77 25 66 18.9 69 69 S 12 19 30.13 1020 10 16 0.00 0.00
8:54 pm 20:54 Partly Cloudy 78 25.6 66 18.9 67 67 SSE 7 11 30.14 1021 10 16 0.00 0.00
9:54 pm 21:54 Mostly Clear 73 22.8 66 18.9 79 79 S 8 13 30.16 1021 10 16 0.00 0.00
10:54 pm 22:54 Mostly Clear 73 22.8 66 18.9 79 79 S 8 13 30.16 1021 10 16 0.00 0.00
11:54 pm 23:54 Mostly Clear 72 22.2 66 18.9 82 82 Calm 30.15 1021 10 16 0.00 0.00

Powered by AerisWeather